CW9871 Weather Reports


time (UTC)temp
C
wind
direction
speed
KPH
gust
KPH
rain 1hr
cm
rain 24hr
cm
rain mn
cm
humidity
%
barometer
mb
20260906213101 21 128 0.0 4.8 0.00 0.00 0.00 70 1018.8
20260906211603 20 112 3.2 9.7 0.00 0.00 0.00 68 1018.8
20260906210107 21 0 3.2 9.7 0.00 0.00 0.00 67 1018.9
20260906204605 21 136 0.0 4.8 0.00 0.00 0.00 72 1018.8
20260906203102 20 177 0.0 8.0 0.00 0.00 0.00 72 1018.7
20260906201620 20 0 0.0 11.3 0.00 0.00 0.00 71 1018.6
20260906200104 21 158 1.6 8.0 0.00 0.00 0.00 69 1018.7
20260906194559 21 226 1.6 6.4 0.00 0.00 0.00 68 1018.8
20260906193102 21 154 1.6 8.0 0.00 0.00 0.00 68 1018.7
20260906191559 21 221 4.8 11.3 0.00 0.00 0.00 71 1018.6
20260906190113 21 143 3.2 6.4 0.00 0.00 0.00 67 1018.6
20260906184604 21 172 3.2 12.9 0.00 0.00 0.00 72 1018.6
20260906183106 21 141 3.2 8.0 0.00 0.00 0.00 68 1018.7
20260906181602 22 195 3.2 9.7 0.00 0.00 0.00 69 1018.8
20260906180113 21 187 3.2 11.3 0.00 0.00 0.00 68 1018.8
20260906174600 21 36 4.8 9.7 0.00 0.00 0.00 67 1018.8
20260906173101 21 208 4.8 14.5 0.00 0.00 0.00 69 1018.8
20260906171600 22 176 1.6 8.0 0.00 0.00 0.00 68 1019.0
20260906170106 22 114 3.2 8.0 0.00 0.00 0.00 68 1018.8
20260906164600 21 131 1.6 12.9 0.00 0.00 0.00 69 1018.6
20260906163102 21 150 4.8 16.1 0.00 0.00 0.00 68 1018.7
20260906161601 20 212 4.8 12.9 0.00 0.00 0.00 70 1018.7
20260906160112 21 210 3.2 9.7 0.00 0.00 0.00 72 1018.7
20260906154604 20 182 3.2 9.7 0.00 0.00 0.00 78 1018.8
20260906153106 20 178 4.8 12.9 0.00 0.00 0.00 75 1018.5
20260906151557 20 216 4.8 11.3 0.00 0.00 0.00 78 1018.6
20260906150106 20 189 1.6 9.7 0.00 0.00 0.00 77 1018.6
20260906144602 20 295 6.4 14.5 0.00 0.00 0.00 80 1018.4
20260906143059 20 172 1.6 8.0 0.00 0.00 0.00 84 1018.5
20260906141601 19 155 1.6 8.0 0.00 0.00 0.00 88 1018.3
20260906140059 18 203 1.6 16.1 0.00 0.00 0.00 88 1018.0
20260906134604 18 136 1.6 4.8 0.00 0.00 0.00 91 1017.8
20260906133123 18 128 0.0 9.7 0.00 0.00 0.00 93 1017.8
20260906131600 18 212 3.2 12.9 0.00 0.00 0.00 94 1017.8
20260906130058 17 181 1.6 8.0 0.00 0.00 0.00 95 1017.9
20260906124600 17 179 1.6 8.0 0.00 0.00 0.00 97 1017.8
20260906123103 17 0 0.0 4.8 0.00 0.00 0.00 97 1017.6
20260906121605 17 164 0.0 6.4 0.00 0.00 0.00 97 1017.5
20260906114609 15 0 0.0 0.0 0.00 0.00 0.00 97 1017.1
20260906113059 14 0 0.0 0.0 0.00 0.00 0.00 97 1017.0
20260906111600 13 0 0.0 0.0 0.00 0.00 0.00 96 1016.8
20260906104623 13 0 0.0 0.0 0.00 0.00 0.00 96 1016.4
20260906103101 13 0 0.0 0.0 0.00 0.00 0.00 96 1016.3
20260906101603 13 0 0.0 0.0 0.00 0.00 0.00 96 1016.1
20260906100058 13 0 0.0 0.0 0.00 0.00 0.00 96 1016.0
20260906094600 13 0 0.0 0.0 0.00 0.00 0.00 96 1015.9
20260906093124 13 0 0.0 0.0 0.00 0.00 0.00 96 1015.8
20260906091600 13 0 0.0 0.0 0.00 0.00 0.00 96 1015.6
20260906084603 13 0 0.0 0.0 0.00 0.00 0.00 95 1015.2
20260906083101 14 0 0.0 0.0 0.00 0.00 0.00 95 1015.2
20260906081602 14 0 0.0 0.0 0.00 0.00 0.00 95 1015.1
20260906080109 14 0 0.0 0.0 0.00 0.00 0.00 96 1015.1
20260906074602 15 0 0.0 0.0 0.00 0.00 0.00 95 1015.0
20260906073101 15 0 0.0 0.0 0.00 0.00 0.00 95 1014.8
20260906071602 15 0 0.0 0.0 0.00 0.00 0.00 95 1014.9
20260906070105 15 0 0.0 0.0 0.00 0.00 0.00 95 1015.0
20260906064556 16 0 0.0 0.0 0.00 0.00 0.00 95 1015.0
20260906063102 16 0 0.0 0.0 0.00 0.00 0.00 95 1015.1
20260906061605 16 0 0.0 0.0 0.00 0.00 0.00 95 1015.0
20260906054608 16 0 0.0 0.0 0.00 0.00 0.00 95 1015.1
20260906053100 16 0 0.0 0.0 0.00 0.00 0.00 95 1015.1
20260906051558 16 0 0.0 0.0 0.00 0.00 0.00 95 1015.2
20260906050121 16 0 0.0 0.0 0.00 0.00 0.00 94 1015.1
20260906044603 16 0 0.0 1.6 0.00 0.00 0.00 95 1015.0
20260906043059 15 153 0.0 1.6 0.00 0.00 0.00 94 1015.0
20260906041600 15 0 0.0 0.0 0.00 0.00 0.00 94 1014.9
20260906040133 16 0 0.0 0.0 0.00 0.00 0.00 93 1014.9
20260906034557 16 0 0.0 0.0 0.00 0.00 0.00 93 1014.8
20260906033111 16 0 0.0 0.0 0.00 0.00 0.00 93 1014.7
20260906031602 16 0 0.0 0.0 0.00 0.00 0.00 93 1014.7
20260906030100 16 0 0.0 0.0 0.00 0.00 0.00 92 1014.6
20260906024616 16 0 0.0 0.0 0.00 0.00 0.00 92 1014.7
20260906023104 16 0 0.0 0.0 0.00 0.00 0.00 92 1014.6
20260906021600 16 0 0.0 0.0 0.00 0.00 0.00 91 1014.5
20260906020100 16 0 0.0 0.0 0.00 0.00 0.00 90 1014.5
20260906014611 16 0 0.0 0.0 0.00 0.00 0.00 89 1014.5
20260906013103 16 0 0.0 0.0 0.00 0.00 0.00 89 1014.3
20260906011605 17 0 0.0 0.0 0.00 0.00 0.00 88 1014.4
20260906004559 17 0 0.0 0.0 0.00 0.00 0.00 85 1014.3
20260906003101 18 0 0.0 0.0 0.00 0.00 0.00 83 1014.1
20260906001559 18 0 0.0 0.0 0.00 0.00 0.00 81 1014.3
20260906000107 19 0 0.0 0.0 0.00 0.00 0.00 77 1014.4
20260905234613 20 0 0.0 0.0 0.00 0.00 0.00 74 1014.3
20260905233101 22 0 0.0 0.0 0.00 0.00 0.00 70 1014.2
20260905231559 23 0 0.0 0.0 0.00 0.00 0.00 70 1014.3
20260905230130 23 0 0.0 0.0 0.00 0.00 0.00 68 1014.2
20260905224602 24 0 0.0 0.0 0.00 0.00 0.00 69 1014.4
20260905223100 24 153 0.0 1.6 0.00 0.00 0.00 69 1014.3
20260905221603 23 0 0.0 3.2 0.00 0.00 0.00 73 1014.2
20260905220110 23 153 1.6 8.0 0.00 0.00 0.00 69 1014.2
20260905214559 23 186 1.6 6.4 0.00 0.00 0.00 69 1014.1